EW8578 Weather Reports


time (UTC)temp
C
wind
direction
speed
KPH
gust
KPH
rain 1hr
cm
rain 24hr
cm
rain mn
cm
humidity
%
barometer
mb
20260508010042 5 128 1.6 4.8 0.00 0.00 0.00 70 1017.2
20260508005543 5 105 1.6 4.8 0.00 0.00 0.00 70 1017.3
20260508004542 5 101 1.6 4.8 0.00 0.00 0.00 71 1017.3
20260508004040 5 102 1.6 3.2 0.00 0.00 0.00 70 1017.3
20260508003540 5 116 1.6 4.8 0.00 0.00 0.00 71 1017.3
20260508003041 5 123 1.6 4.8 0.00 0.00 0.00 71 1017.3
20260508002540 5 122 1.6 4.8 0.00 0.00 0.00 72 1017.4
20260508002041 5 117 1.6 4.8 0.00 0.00 0.00 72 1017.3
20260508001539 5 128 1.6 4.8 0.00 0.00 0.00 72 1017.4
20260508001037 5 136 1.6 4.8 0.00 0.00 0.00 73 1017.3
20260508000537 5 134 1.6 4.8 0.00 0.00 0.00 73 1017.4
20260508000044 5 126 3.2 4.8 0.00 0.00 0.00 74 1017.4
20260507235539 5 130 1.6 4.8 0.00 0.00 0.00 74 1017.4
20260507234543 5 109 3.2 4.8 0.00 0.00 0.00 73 1017.4
20260507234039 5 103 1.6 4.8 0.00 0.00 0.00 74 1017.4
20260507233537 5 116 1.6 4.8 0.00 0.00 0.00 74 1017.4
20260507233037 5 111 3.2 6.4 0.00 0.00 0.00 74 1017.3
20260507232537 5 109 3.2 6.4 0.00 0.00 0.00 74 1017.3
20260507232036 5 105 1.6 4.8 0.00 0.00 0.00 75 1017.4
20260507231543 5 114 3.2 4.8 0.00 0.00 0.00 75 1017.3
20260507231036 5 106 1.6 4.8 0.00 0.00 0.00 74 1017.4
20260507230540 5 111 1.6 4.8 0.00 0.00 0.00 74 1017.5
20260507230035 6 101 1.6 4.8 0.00 0.00 0.00 74 1017.5
20260507225535 6 155 1.6 4.8 0.00 0.00 0.00 74 1017.5
20260507224536 6 136 1.6 4.8 0.00 0.00 0.00 73 1017.4
20260507224035 6 115 1.6 4.8 0.00 0.00 0.00 73 1017.4
20260507223538 6 159 1.6 4.8 0.00 0.00 0.00 73 1017.4
20260507223035 6 161 1.6 6.4 0.00 0.00 0.00 72 1017.3
20260507222535 6 149 1.6 6.4 0.00 0.00 0.00 72 1017.3
20260507222035 6 165 3.2 6.4 0.00 0.00 0.00 72 1017.4
20260507221534 6 160 1.6 6.4 0.00 0.00 0.00 72 1017.4
20260507221034 6 173 3.2 6.4 0.00 0.00 0.00 71 1017.4
20260507220536 6 117 3.2 9.7 0.00 0.00 0.00 72 1017.4
20260507220034 6 169 4.8 11.3 0.00 0.00 0.00 72 1017.4
20260507215534 6 138 4.8 11.3 0.00 0.00 0.00 73 1017.4
20260507214533 6 165 1.6 6.4 0.00 0.00 0.00 72 1017.3
20260507214033 6 114 3.2 6.4 0.00 0.00 0.00 71 1017.3
20260507213533 6 127 1.6 4.8 0.00 0.00 0.00 70 1017.3
20260507213039 6 116 1.6 6.4 0.00 0.00 0.00 70 1017.3
20260507212532 6 121 3.2 6.4 0.00 0.00 0.00 69 1017.2
20260507212038 6 136 1.6 4.8 0.00 0.00 0.00 68 1017.1
20260507211543 7 145 3.2 8.0 0.00 0.00 0.00 67 1017.1
20260507211032 7 155 3.2 8.0 0.00 0.00 0.00 66 1017.1
20260507210532 7 165 3.2 6.4 0.00 0.00 0.00 65 1017.1
20260507210034 7 147 1.6 9.7 0.00 0.00 0.00 65 1017.1
20260507205532 7 144 3.2 8.0 0.00 0.00 0.00 66 1017.0
20260507204531 7 149 3.2 9.7 0.00 0.00 0.00 69 1016.9
20260507204031 7 126 3.2 8.0 0.00 0.00 0.00 70 1016.9
20260507203531 7 148 3.2 8.0 0.00 0.00 0.00 69 1016.9
20260507203034 7 172 3.2 6.4 0.00 0.00 0.00 69 1016.9
20260507202530 7 172 3.2 6.4 0.00 0.00 0.00 67 1016.8
20260507202031 7 165 3.2 6.4 0.00 0.00 0.00 67 1016.8
20260507201530 7 173 1.6 9.7 0.00 0.00 0.00 66 1016.8
20260507201030 7 170 3.2 8.0 0.00 0.00 0.00 66 1016.8
20260507200530 8 180 3.2 8.0 0.00 0.00 0.00 66 1016.8
20260507200031 8 126 3.2 6.4 0.00 0.00 0.00 65 1016.7
20260507195529 8 138 3.2 6.4 0.00 0.00 0.00 65 1016.7
20260507194531 8 131 3.2 8.0 0.00 0.00 0.00 66 1016.7
20260507194029 8 169 3.2 8.0 0.00 0.00 0.00 65 1016.6
20260507193530 9 167 1.6 6.4 0.00 0.00 0.00 65 1016.6
20260507193031 9 180 1.6 4.8 0.00 0.00 0.00 66 1016.5
20260507192530 9 192 1.6 6.4 0.00 0.00 0.00 65 1016.5
20260507192032 9 192 3.2 6.4 0.00 0.00 0.00 63 1016.5
20260507191530 10 213 4.8 6.4 0.00 0.00 0.00 65 1016.4
20260507191032 10 212 3.2 4.8 0.00 0.00 0.00 66 1016.3
20260507190529 10 211 3.2 4.8 0.00 0.00 0.00 61 1016.3
20260507190028 11 218 3.2 4.8 0.00 0.00 0.00 60 1016.3
20260507185527 10 355 0.0 1.6 0.00 0.00 0.00 52 1016.3
20260507184528 10 355 0.0 1.6 0.00 0.00 0.00 54 1016.2
20260507184032 10 355 0.0 1.6 0.00 0.00 0.00 57 1016.2
20260507183529 10 355 0.0 3.2 0.00 0.00 0.00 58 1016.2
20260507183027 10 355 0.0 3.2 0.00 0.00 0.00 58 1016.2
20260507182527 10 355 0.0 4.8 0.00 0.00 0.00 60 1016.1
20260507182029 10 355 1.6 4.8 0.00 0.00 0.00 58 1016.1
20260507181527 11 254 0.0 1.6 0.00 0.00 0.00 53 1016.1
20260507181027 11 254 0.0 1.6 0.00 0.00 0.00 52 1016.1
20260507180527 11 254 0.0 1.6 0.00 0.00 0.00 56 1016.1
20260507180026 11 246 0.0 1.6 0.00 0.00 0.00 53 1016.1
20260507175525 11 246 0.0 4.8 0.00 0.00 0.00 60 1016.1
20260507174542 11 246 1.6 4.8 0.00 0.00 0.00 58 1016.1
20260507174024 11 229 1.6 3.2 0.00 0.00 0.00 63 1016.1
20260507173527 11 207 0.0 3.2 0.00 0.00 0.00 63 1016.1
20260507173025 11 257 0.0 3.2 0.00 0.00 0.00 65 1016.1
20260507172522 11 257 1.6 4.8 0.00 0.00 0.00 65 1016.1
20260507172024 11 242 3.2 6.4 0.00 0.00 0.00 63 1016.1
20260507171528 11 221 3.2 6.4 0.00 0.00 0.00 58 1016.1
20260507171021 10 224 3.2 6.4 0.00 0.00 0.00 61 1016.0
20260507170522 10 216 3.2 6.4 0.00 0.00 0.00 63 1016.1
20260507170024 10 209 4.8 8.0 0.00 0.00 0.00 56 1016.1
20260507165524 11 217 4.8 8.0 0.00 0.00 0.00 49 1016.1
20260507164524 11 217 3.2 6.4 0.00 0.00 0.00 47 1016.0
20260507164021 11 211 3.2 4.8 0.00 0.00 0.00 45 1015.9
20260507163521 11 220 1.6 4.8 0.00 0.00 0.00 45 1016.0
20260507163023 11 220 1.6 3.2 0.00 0.00 0.00 45 1016.0
20260507162520 11 43 0.0 3.2 0.00 0.00 0.00 47 1016.0
20260507162020 11 40 0.0 3.2 0.00 0.00 0.00 47 1016.1
20260507161521 11 5 0.0 3.2 0.00 0.00 0.00 49 1016.1
20260507161020 11 5 0.0 1.6 0.00 0.00 0.00 52 1016.2
20260507160518 11 5 0.0 3.2 0.00 0.00 0.00 52 1016.1
20260507160018 11 5 1.6 4.8 0.00 0.00 0.00 53 1016.1
20260507155516 11 5 1.6 4.8 0.00 0.00 0.00 53 1016.1
20260507154519 11 5 1.6 4.8 0.00 0.00 0.00 52 1016.1
20260507154014 11 5 1.6 4.8 0.00 0.00 0.00 47 1016.1
20260507153514 11 9 1.6 4.8 0.00 0.00 0.00 49 1016.1
20260507153018 11 9 3.2 4.8 0.00 0.00 0.00 59 1016.1
20260507152517 10 9 1.6 4.8 0.00 0.00 0.00 57 1016.2
20260507152015 10 11 1.6 4.8 0.00 0.00 0.00 56 1016.2
20260507151514 11 5 1.6 6.4 0.00 0.00 0.00 55 1016.2
20260507151013 11 5 3.2 6.4 0.00 0.00 0.00 57 1016.1
20260507150513 11 5 1.6 4.8 0.00 0.00 0.00 54 1016.2
20260507150016 11 22 1.6 8.0 0.00 0.00 0.00 56 1016.3
20260507145513 11 5 3.2 8.0 0.00 0.00 0.00 62 1016.3
20260507144513 11 360 4.8 8.0 0.00 0.00 0.00 62 1016.3
20260507144013 11 14 1.6 6.4 0.00 0.00 0.00 58 1016.3
20260507143512 11 5 3.2 4.8 0.00 0.00 0.00 60 1016.3
20260507143012 11 21 1.6 6.4 0.00 0.00 0.00 58 1016.3
20260507142514 11 11 3.2 6.4 0.00 0.00 0.00 60 1016.4
20260507142014 11 5 3.2 6.4 0.00 0.00 0.00 59 1016.4
20260507141512 11 5 3.2 4.8 0.00 0.00 0.00 57 1016.5
20260507141015 11 10 1.6 4.8 0.00 0.00 0.00 54 1016.5
20260507140514 11 10 3.2 6.4 0.00 0.00 0.00 57 1016.5
20260507140027 11 9 3.2 6.4 0.00 0.00 0.00 58 1016.5
20260507135512 11 5 1.6 4.8 0.00 0.00 0.00 59 1016.5
20260507134510 11 12 1.6 3.2 0.00 0.00 0.00 57 1016.6
20260507134012 10 20 1.6 3.2 0.00 0.00 0.00 55 1016.6
20260507133509 10 20 1.6 4.8 0.00 0.00 0.00 55 1016.6
20260507133009 10 19 1.6 6.4 0.00 0.00 0.00 58 1016.7
20260507132508 10 14 3.2 6.4 0.00 0.00 0.00 58 1016.7
20260507132009 10 5 3.2 6.4 0.00 0.00 0.00 58 1016.7
20260507131508 10 9 3.2 6.4 0.00 0.00 0.00 57 1016.7
20260507131007 10 22 1.6 6.4 0.00 0.00 0.00 58 1016.7
20260507130507 10 15 3.2 4.8 0.00 0.00 0.00 57 1016.7
20260507130006 10 9 1.6 4.8 0.00 0.00 0.00 56 1016.7
20260507125506 10 5 3.2 8.0 0.00 0.00 0.00 59 1016.8
20260507124504 10 5 3.2 6.4 0.00 0.00 0.00 60 1016.8
20260507124002 10 5 3.2 6.4 0.00 0.00 0.00 61 1016.8
20260507123502 10 360 3.2 4.8 0.00 0.00 0.00 59 1016.9
20260507123002 10 355 3.2 6.4 0.00 0.00 0.00 58 1016.9
20260507122501 10 24 3.2 6.4 0.00 0.00 0.00 61 1016.8
20260507122104 10 9 4.8 6.4 0.00 0.00 0.00 61 1016.9
20260507121601 10 5 3.2 6.4 0.00 0.00 0.00 59 1016.9
20260507121059 10 5 3.2 4.8 0.00 0.00 0.00 58 1016.9
20260507120559 10 28 1.6 4.8 0.00 0.00 0.00 57 1016.9
20260507120059 10 17 1.6 4.8 0.00 0.00 0.00 56 1016.9
20260507115558 9 24 3.2 6.4 0.00 0.00 0.00 57 1016.9
20260507114558 9 14 3.2 6.4 0.00 0.00 0.00 60 1017.0
20260507114157 9 9 3.2 6.4 0.00 0.00 0.00 60 1017.0
20260507113559 9 5 3.2 8.0 0.00 0.00 0.00 61 1017.0
20260507113128 9 9 3.2 6.4 0.00 0.00 0.00 61 1017.0
20260507112556 9 5 3.2 6.4 0.00 0.00 0.00 64 1017.1
20260507112057 8 5 3.2 6.4 0.00 0.00 0.00 62 1017.2
20260507111553 8 12 3.2 6.4 0.00 0.00 0.00 63 1017.2
20260507111052 8 5 3.2 8.0 0.00 0.00 0.00 64 1017.2
20260507110552 8 5 4.8 8.0 0.00 0.00 0.00 64 1017.3
20260507110052 8 360 4.8 8.0 0.00 0.00 0.00 65 1017.2
20260507105551 8 360 4.8 8.0 0.00 0.00 0.00 66 1017.2
20260507104600 8 5 4.8 8.0 0.00 0.00 0.00 66 1017.2
20260507104050 8 5 3.2 8.0 0.00 0.00 0.00 66 1017.2
20260507103650 8 5 4.8 8.0 0.00 0.00 0.00 66 1017.2
20260507103050 8 360 4.8 8.0 0.00 0.00 0.00 66 1017.2
20260507102549 8 360 3.2 8.0 0.00 0.00 0.00 66 1017.2
20260507102050 8 5 4.8 8.0 0.00 0.00 0.00 67 1017.2
20260507101553 8 9 3.2 6.4 0.00 0.00 0.00 66 1017.2
20260507101050 8 5 1.6 8.0 0.00 0.00 0.00 68 1017.2
20260507100548 7 5 4.8 8.0 0.00 0.00 0.00 66 1017.2
20260507100056 8 5 4.8 8.0 0.00 0.00 0.00 65 1017.2
20260507095547 8 5 3.2 6.4 0.00 0.00 0.00 66 1017.2
20260507094552 8 5 1.6 6.4 0.00 0.00 0.00 66 1017.1
20260507094051 8 5 3.2 4.8 0.00 0.00 0.00 66 1017.1
20260507093548 8 15 1.6 4.8 0.00 0.00 0.00 67 1017.1
20260507093046 8 13 1.6 6.4 0.00 0.00 0.00 69 1017.1
20260507092545 7 17 1.6 6.4 0.00 0.00 0.00 71 1017.2
20260507092049 7 10 3.2 6.4 0.00 0.00 0.00 72 1017.2
20260507091547 7 5 1.6 6.4 0.00 0.00 0.00 73 1017.2
20260507091043 7 11 1.6 6.4 0.00 0.00 0.00 74 1017.2
20260507090543 7 11 1.6 6.4 0.00 0.00 0.00 75 1017.2
20260507090041 7 5 3.2 8.0 0.00 0.00 0.00 75 1017.2
20260507085540 7 5 3.2 8.0 0.00 0.00 0.00 76 1017.2
20260507084550 7 5 3.2 8.0 0.00 0.00 0.00 76 1017.1
20260507084038 7 5 1.6 8.0 0.00 0.00 0.00 77 1017.1
20260507083536 6 5 3.2 8.0 0.00 0.00 0.00 77 1017.1
20260507083035 6 5 3.2 6.4 0.00 0.00 0.00 77 1017.0
20260507082535 6 312 1.6 4.8 0.00 0.00 0.00 77 1017.1
20260507082034 6 49 0.0 3.2 0.00 0.00 0.00 79 1017.1
20260507081532 6 97 1.6 3.2 0.00 0.00 0.00 80 1017.0
20260507081031 5 103 1.6 4.8 0.00 0.00 0.00 80 1017.0
20260507080529 5 132 1.6 4.8 0.00 0.00 0.00 81 1017.0
20260507080030 5 109 1.6 4.8 0.00 0.00 0.00 79 1017.0
20260507075530 5 99 1.6 4.8 0.00 0.00 0.00 79 1017.0
20260507074528 5 101 1.6 4.8 0.00 0.00 0.00 81 1016.9
20260507074026 5 115 1.6 4.8 0.00 0.00 0.00 81 1016.9
20260507073525 4 124 1.6 3.2 0.00 0.00 0.00 81 1016.9
20260507073026 4 128 1.6 3.2 0.00 0.00 0.00 81 1016.8
20260507072524 4 84 0.0 3.2 0.00 0.00 0.00 82 1016.8
20260507072023 3 84 0.0 3.2 0.00 0.00 0.00 81 1016.8
20260507071523 3 101 0.0 3.2 0.00 0.00 0.00 81 1016.7
20260507071022 3 101 1.6 4.8 0.00 0.00 0.00 81 1016.8
20260507070522 3 100 1.6 4.8 0.00 0.00 0.00 80 1016.8
20260507070024 3 100 0.0 3.2 0.00 0.00 0.00 80 1016.8
20260507065522 3 100 0.0 1.6 0.00 0.00 0.00 80 1016.7
20260507064523 3 100 0.0 1.6 0.00 0.00 0.00 80 1016.7
20260507064023 4 100 0.0 1.6 0.00 0.00 0.00 80 1016.7
20260507063523 4 100 0.0 1.6 0.00 0.00 0.00 80 1016.7
20260507063022 4 100 0.0 0.0 0.00 0.00 0.00 81 1016.8
20260507062521 4 100 0.0 0.0 0.00 0.00 0.00 81 1016.7
20260507062021 3 100 0.0 1.6 0.00 0.00 0.00 81 1016.7
20260507061521 3 100 0.0 1.6 0.00 0.00 0.00 81 1016.7
20260507061020 3 100 0.0 1.6 0.00 0.00 0.00 81 1016.8
20260507060520 3 100 0.0 1.6 0.00 0.00 0.00 82 1016.7
20260507060031 3 100 0.0 1.6 0.00 0.00 0.00 82 1016.7
20260507055519 3 100 0.0 0.0 0.00 0.00 0.00 82 1016.6
20260507054525 3 100 0.0 1.6 0.00 0.00 0.00 82 1016.6
20260507054020 3 100 0.0 3.2 0.00 0.00 0.00 82 1016.6
20260507053518 2 100 0.0 3.2 0.00 0.00 0.00 82 1016.6
20260507053016 2 100 1.6 4.8 0.00 0.00 0.00 82 1016.6
20260507052519 2 105 1.6 4.8 0.00 0.00 0.00 82 1016.5
20260507052016 2 117 1.6 4.8 0.00 0.00 0.00 82 1016.5
20260507051516 2 101 3.2 4.8 0.00 0.00 0.00 81 1016.4
20260507051018 2 102 3.2 4.8 0.00 0.00 0.00 81 1016.3
20260507050513 2 96 1.6 4.8 0.00 0.00 0.00 82 1016.3
20260507050035 2 86 1.6 4.8 0.00 0.00 0.00 82 1016.2
20260507045513 2 88 1.6 3.2 0.00 0.00 0.00 82 1016.2
20260507044521 2 74 1.6 4.8 0.00 0.00 0.00 82 1016.2
20260507044014 2 101 1.6 4.8 0.00 0.00 0.00 82 1016.2
20260507043514 2 91 1.6 4.8 0.00 0.00 0.00 82 1016.2
20260507043014 2 91 3.2 4.8 0.00 0.00 0.00 81 1016.2
20260507042514 2 88 1.6 4.8 0.00 0.00 0.00 81 1016.2
20260507042014 1 101 3.2 4.8 0.00 0.00 0.00 81 1016.2
20260507041513 1 91 1.6 4.8 0.00 0.00 0.00 81 1016.2
20260507041013 1 91 1.6 4.8 0.00 0.00 0.00 80 1016.1
20260507040512 1 91 1.6 6.4 0.00 0.00 0.00 80 1016.1
20260507040014 1 97 3.2 6.4 0.00 0.00 0.00 80 1016.1
20260507035512 1 98 3.2 6.4 0.00 0.00 0.00 80 1016.1
20260507034512 1 103 4.8 6.4 0.00 0.00 0.00 80 1016.0
20260507034017 1 101 4.8 6.4 0.00 0.00 0.00 80 1016.0
20260507033511 1 98 4.8 9.7 0.00 0.00 0.00 80 1016.0
20260507033016 1 96 4.8 9.7 0.00 0.00 0.00 80 1016.0
20260507032511 1 105 4.8 9.7 0.00 0.00 0.00 80 1016.0
20260507032010 1 100 4.8 6.4 0.00 0.00 0.00 80 1016.0
20260507031510 1 103 4.8 6.4 0.00 0.00 0.00 79 1015.9
20260507031010 1 101 4.8 6.4 0.00 0.00 0.00 79 1015.9
20260507030510 1 96 4.8 9.7 0.00 0.00 0.00 79 1016.0
20260507030009 1 104 4.8 9.7 0.00 0.00 0.00 79 1016.0
20260507025509 1 97 4.8 9.7 0.00 0.00 0.00 78 1015.8
20260507024515 1 113 4.8 9.7 0.00 0.00 0.00 79 1015.8
20260507024009 1 105 4.8 9.7 0.00 0.00 0.00 78 1015.8
20260507023509 1 113 3.2 9.7 0.00 0.00 0.00 78 1015.8
20260507023007 1 102 4.8 6.4 0.00 0.00 0.00 78 1015.7
20260507022506 1 92 4.8 6.4 0.00 0.00 0.00 78 1015.7
20260507022006 1 96 4.8 6.4 0.00 0.00 0.00 78 1015.7
20260507021516 2 105 4.8 6.4 0.00 0.00 0.00 78 1015.7
20260507021005 2 112 4.8 6.4 0.00 0.00 0.00 78 1015.6
20260507020505 2 111 4.8 6.4 0.00 0.00 0.00 78 1015.6
20260507020005 2 92 3.2 6.4 0.00 0.00 0.00 78 1015.6
20260507015506 2 76 3.2 9.7 0.00 0.00 0.00 78 1015.7
20260507014503 2 94 4.8 9.7 0.00 0.00 0.00 78 1015.6
20260507014002 2 110 4.8 9.7 0.00 0.00 0.00 78 1015.6
20260507013502 2 109 4.8 9.7 0.00 0.00 0.00 78 1015.6
20260507013004 2 98 4.8 6.4 0.00 0.00 0.00 78 1015.7
20260507012502 2 98 3.2 6.4 0.00 0.00 0.00 77 1015.6
20260507012100 2 110 4.8 6.4 0.00 0.00 0.00 77 1015.6
20260507011604 2 95 3.2 6.4 0.00 0.00 0.00 77 1015.5
20260507011057 2 106 3.2 6.4 0.00 0.00 0.00 77 1015.5
20260507010557 2 80 3.2 6.4 0.00 0.00 0.00 77 1015.5